| time (UTC) | temp F | wind direction | speed knots | gust knots | rain 1hr in | rain 24hr in | rain mn in | humidity % | barometer mb |
| 20260906063019 | 78 | 135 | 2.6 | 6.1 | 0.00 | 0.00 | 0.00 | 39 | 1012.7 |
| 20260906060019 | 78 | 90 | 1.7 | 3.5 | 0.00 | 0.00 | 0.00 | 39 | 1012.4 |
| 20260906053019 | 79 | 270 | 1.7 | 3.5 | 0.00 | 0.00 | 0.00 | 37 | 1012.6 |
| 20260906050039 | 79 | 270 | 2.6 | 5.2 | 0.00 | 0.00 | 0.00 | 37 | 1012.8 |
| 20260906043019 | 79 | 270 | 2.6 | 5.2 | 0.00 | 0.00 | 0.00 | 41 | 1012.6 |
| 20260906040019 | 80 | 293 | 1.7 | 5.2 | 0.00 | 0.00 | 0.00 | 42 | 1012.4 |
| 20260906033039 | 81 | 293 | 1.7 | 4.3 | 0.00 | 0.00 | 0.00 | 38 | 1012.3 |
| 20260906030039 | 82 | 270 | 2.6 | 6.1 | 0.00 | 0.00 | 0.00 | 31 | 1011.8 |
| 20260906023019 | 83 | 270 | 4.3 | 7.8 | 0.00 | 0.00 | 0.00 | 31 | 1011.7 |
| 20260906020018 | 85 | 270 | 4.3 | 8.7 | 0.00 | 0.00 | 0.00 | 28 | 1011.6 |
| 20260906013018 | 88 | 270 | 4.3 | 8.7 | 0.00 | 0.00 | 0.00 | 30 | 1011.7 |
| 20260906010018 | 88 | 248 | 6.1 | 10.4 | 0.00 | 0.00 | 0.00 | 32 | 1011.8 |
| 20260906003018 | 88 | 270 | 7.0 | 11.3 | 0.00 | 0.00 | 0.00 | 34 | 1011.9 |
| 20260906000019 | 89 | 270 | 6.1 | 13.9 | 0.00 | 0.00 | 0.00 | 37 | 1011.7 |
| 20260905233018 | 91 | 248 | 7.0 | 13.0 | 0.00 | 0.00 | 0.00 | 36 | 1011.9 |
| 20260905230018 | 91 | 248 | 6.1 | 13.0 | 0.00 | 0.00 | 0.00 | 33 | 1011.7 |
| 20260905223018 | 90 | 248 | 6.1 | 11.3 | 0.00 | 0.00 | 0.00 | 37 | 1012.1 |
| 20260905220018 | 91 | 248 | 7.0 | 13.0 | 0.00 | 0.00 | 0.00 | 31 | 1012.4 |
| 20260905213038 | 92 | 248 | 7.0 | 13.9 | 0.00 | 0.00 | 0.00 | 37 | 1012.4 |
| 20260905210018 | 92 | 248 | 6.1 | 12.2 | 0.00 | 0.00 | 0.00 | 38 | 1012.8 |
| 20260905203018 | 92 | 270 | 7.0 | 12.2 | 0.00 | 0.00 | 0.00 | 37 | 1013.1 |
| 20260905200018 | 92 | 248 | 6.1 | 13.9 | 0.00 | 0.00 | 0.00 | 30 | 1013.2 |
| 20260905193018 | 90 | 293 | 5.2 | 10.4 | 0.00 | 0.00 | 0.00 | 26 | 1013.4 |
| 20260905190017 | 89 | 293 | 5.2 | 11.3 | 0.00 | 0.00 | 0.00 | 26 | 1013.7 |
| 20260905183018 | 85 | 315 | 6.1 | 11.3 | 0.00 | 0.00 | 0.00 | 32 | 1013.9 |
| 20260905180017 | 83 | 338 | 4.3 | 8.7 | 0.00 | 0.00 | 0.00 | 34 | 1014.1 |
| 20260905173019 | 82 | 315 | 4.3 | 7.8 | 0.00 | 0.00 | 0.00 | 37 | 1014.0 |
| 20260905170019 | 80 | 315 | 3.5 | 8.7 | 0.00 | 0.00 | 0.00 | 37 | 1013.6 |
| 20260905163039 | 79 | 315 | 3.5 | 7.8 | 0.00 | 0.00 | 0.00 | 40 | 1013.6 |
| 20260905160019 | 76 | 0.0 | 2.6 | 0.00 | 0.00 | 0.00 | 38 | 1013.4 | |
| 20260905153019 | 73 | 90 | 2.6 | 7.0 | 0.00 | 0.00 | 0.00 | 40 | 1013.2 |
| 20260905150019 | 70 | 90 | 3.5 | 6.1 | 0.00 | 0.00 | 0.00 | 46 | 1013.2 |
| 20260905143019 | 67 | 90 | 2.6 | 6.1 | 0.00 | 0.00 | 0.00 | 56 | 1013.0 |
| 20260905140019 | 66 | 113 | 2.6 | 3.5 | 0.00 | 0.00 | 0.00 | 54 | 1012.8 |
| 20260905133019 | 64 | 90 | 1.7 | 3.5 | 0.00 | 0.00 | 0.00 | 59 | 1012.4 |
| 20260905130039 | 65 | 315 | 0.9 | 3.5 | 0.00 | 0.00 | 0.00 | 60 | 1012.2 |
| 20260905123039 | 66 | 0.0 | 0.0 | 0.00 | 0.00 | 0.00 | 59 | 1012.3 | |
| 20260905120019 | 66 | 135 | 0.9 | 2.6 | 0.00 | 0.00 | 0.00 | 55 | 1012.3 |
| 20260905113019 | 64 | 135 | 0.9 | 2.6 | 0.00 | 0.00 | 0.00 | 63 | 1012.2 |
| 20260905110019 | 65 | 113 | 2.6 | 5.2 | 0.00 | 0.00 | 0.00 | 68 | 1012.2 |
| 20260905103039 | 64 | 113 | 2.6 | 5.2 | 0.00 | 0.00 | 0.00 | 71 | 1012.4 |
| 20260905100018 | 65 | 135 | 1.7 | 5.2 | 0.00 | 0.00 | 0.00 | 65 | 1012.5 |
| 20260905093018 | 65 | 135 | 2.6 | 5.2 | 0.00 | 0.00 | 0.00 | 67 | 1012.7 |
| 20260905090019 | 62 | 90 | 3.5 | 6.1 | 0.00 | 0.00 | 0.00 | 81 | 1012.7 |
| 20260905083019 | 63 | 113 | 1.7 | 3.5 | 0.00 | 0.00 | 0.00 | 88 | 1013.2 |
| 20260905080018 | 63 | 113 | 1.7 | 2.6 | 0.00 | 0.00 | 0.00 | 89 | 1013.4 |
| 20260905073018 | 63 | 0.0 | 2.6 | 0.00 | 0.00 | 0.00 | 88 | 1013.7 | |
| 20260905070038 | 62 | 113 | 1.7 | 5.2 | 0.00 | 0.00 | 0.00 | 86 | 1013.3 |